Location: Hobi?a Gr?di?te
(45.4833°N, 22.7833°E)
Time: 11:10:44
(UTC+00:00)

Cosmos 2227 - Pass Details

Date: 28 January 2023
Orbit: 833 x 863 km, 71.0° (Epoch: 20 March)

Event Time Altitude Azimuth Distance (km) Brightness Sun altitude
Rises 17:31:13 0° 333° (NNW) 3,448 7.7 -21.4°
Reaches altitude 10° 17:33:41 10° 332° (NNW) 2,509 6.9 -21.8°
Maximum altitude 17:39:28 83° 246° (WSW) 875 4.2 -22.8°
Enters shadow 17:44:49 12° 159° (SSE) 2,340 6.3 -23.7°
